Weather Roundup
Issued by NWS Chicago, IL

Home | Current Version | Previous Version | Text Only | Print | Product List | Glossary On
Versions: 1 2 3 4 5 6 7 8 9 10 11 12 13 14 15 16 17 18 19 20 21 22 23 24 25 26 27 28 29 30 31 32 33 34 35 36 37 38 39 40 41 42 43 44 45 46 47 48 49 50
000
NZUS59 KLOT 292310
HRRLOT

CHICAGO AREA WEATHER ROUNDUP
NATIONAL WEATHER SERVICE CHICAGO/ROMEOVILLE IL
500 PM CST THU JAN 29 2015

NOTE: "FAIR" INDICATES FEW OR NO CLOUDS BELOW 12,000 FEET WITH NO
SIGNIFICANT WEATHER AND/OR OBSTRUCTIONS TO VISIBILITY.

* THESE STATIONS ARE NOT UNDER NWS QUALITY CONTROL. THEY ALSO MAY NOT
  REPORT WEATHER SUCH AS PRECIPITATION OR FOG.

ILZ005-006-012>014-019>023-300000-
NORTHEAST ILLINOIS

CITY           SKY/WX    TMP DP  RH WIND       PRES   REMARKS
OHARE          CLOUDY    34  25  69 NW17      30.09R WCI  23
MIDWAY         CLOUDY    36  27  69 NW17G26   30.11R
AURORA         CLOUDY    35  24  64 NW20G29   30.12R WCI  24
LANSING*       CLOUDY    35  27  75 NW9G18    30.10R WCI  27
JOLIET*        CLOUDY    35  26  69 NW8       30.14R WCI  28
WAUKEGAN       CLOUDY    34  24  67 NW9G24    30.08R WCI  27
DUPAGE AIRPORT CLOUDY    35  24  64 N16G29    30.11R WCI  25
WHEELING       CLOUDY    34  25  69 NW13G22   30.11R WCI  25
KANKAKEE*      CLOUDY    34  30  83 NW9       30.13R WCI  27
MORRIS*        CLOUDY    34  30  83 NW6       30.14R WCI  29
LEWIS AIRPORT* CLOUDY    34  26  72 NW13      30.12R WCI  25
NORTHERLY IS     N/A     35  26  70 NW13        N/A  WCI  26
$$

WIZ051-052-058>065-066-070>072-300000-
SOUTHEAST WISCONSIN

CITY           SKY/WX    TMP DP  RH WIND       PRES   REMARKS
MILWAUKEE      CLOUDY    35  22  58 NW18G26   30.08R WCI  24
KENOSHA*       CLOUDY    35  24  64 NW12G25   30.09R WCI  27
RACINE*        CLOUDY    35  23  61 NW12      30.09R WCI  27
BURLINGTON     CLOUDY    32  23  69 NW14      30.10R WCI  22
WAUKESHA       CLOUDY    32  21  64 NW17G29   30.08R WCI  21
WEST BEND      CLOUDY    32  21  64 NW16G23   30.07R WCI  21
$$

INZ001>003-010>013-019-020-300000-
NORTHWEST INDIANA

CITY           SKY/WX    TMP DP  RH WIND       PRES   REMARKS
GARY*          CLOUDY    37  23  56 NW14G29   30.10R
MICHIGAN CITY* NOT AVBL
RENSSELAER*    NOT AVBL
VALPARAISO     CLOUDY    33  27  78 NW12      30.08R WCI  24
$$

LMZ740>746-300000-
SOUTHERN LAKE MICHIGAN

STATION/POSITION TIME  SKY/WX   TEMP WIND        PRES    VSBY
                                AIR  DIR/SP/G
                 (UTC)          (F)  (DEG/KT/KT) (MB)    (MI)
HARRISON CRIB    2300            35  310/ 15/ 18   N/A
BURNHAM HARBOR   2300            35  290/ 11/ 16   N/A
CALUMET HARBOR   2300            35  300/  9/ 15   N/A
BURNS HARBOR     NOT AVBL
MICHIGAN CITY    2300            34  290/ 20/ 25   N/A
$$

ABBREVIATIONS USED IN REMARKS
   TC - TEMPERATURE IN CELSIUS
  WCI - WIND CHILL INDEX
   HX - HEAT INDEX
  VSB - VISIBILITY
$$


USA.gov is the U.S. government's official web portal to all federal, state and local government web resources and services.